COSMOS 2251 DEB, 35023

Orbit data source: Space-Track

COSMOS 2251 DEB, 35023 is space debris in LEO originally from a launch on Wed, 16 Jun 1993 UTC launched from the Plesetsk Missile And Space Complex (PKMTR). The debris from Iridium 33, an American commercial communications satellite, has been tracked extensively since its accidental collision with the defunct Russian satellite Cosmos 2251 in 2009. This event, occurring at high speed in low Earth orbit (LEO), generated thousands of pieces of space debris, significantly increasing the risk of further collisions. The Iridium 33 debris cloud has impacted space traffic management and orbital debris mitigation strategies, making it a subject of ongoing study in space situational awareness.

Loading next visibility...
Identifier
35023, 1993-036AGL
Orbit
LEO
Country
Flag of CISCIS
Related business
Manufacturer
Unknown
Mission
Spacecraft
Bus & Motor
Unknown
Mass
Unknown
Launch date (UTC)
1993-06-16 (33 years ago)
Launch vehicle
Unknown
Launch site
Plesetsk Missile And Space Complex (PKMTR)
Object type
Payload
Rocket body
Debris
Shape & HBR
Unknown shape, 0.1 m
Radar Cross Section
Medium (>0.1 m² and <1 m²)

Expand to show TLE details & history
Last TLE update: 10 hours ago

TLE from 10 hours ago
0 COSMOS 2251 DEB
1 35023U 93036AGL 26168.51412269  .00011025  00000-0  82398-3 0  9999
2 35023  74.0335 193.4882 0030098 232.2398 251.9770 15.02496936910782
Epoch: 2026-06-17T12:20Z
TLE epoch observation values (Epoch: 2026-06-17T12:20:20.200Z)
Latitude
53.06028°
Longitude
-99.60371°
Altitude
574.05 km
Speed
7.576 km/s
True Right ascension
23h 25m 00s
True Declination
52° 53' 26"
Sunlit
Object was in daylight at epoch
Visualization orbit readout
Latitude
Unknown
Longitude
Unknown
Altitude
Unknown
Speed
Unknown
Apparent Right ascension
Unknown
Apparent Declination
Unknown
Sunlit
N/A
Visualization observer readout
Local Sidereal Time
08:55:54
Azimuth
Unknown
Elevation
Unknown
Doppler factor
Unknown
Orbital elements
Apogee altitude
577.624 km
Perigee altitude
535.878 km
Semi-major axis
6,934.888 km
Eccentricity
0.00301
Inclination
74.0335°
RAAN
193.4882°
Arg. of periapsis
232.2398°
True anomaly
251.64941°
Mean anomaly
251.977°
Eccentric anomaly
251.81317°
Mean motion
3.75824 °/min
Orbital period
95.79 mins
BSTAR
0.00082398

Documentation

Showing up to 5 results
|